| time (UTC) | temp C | wind direction | speed KPH | gust KPH | rain 1hr cm | rain 24hr cm | rain mn cm | humidity % | barometer mb |
| 20260506165247 | 16 | 92 | 3.2 | 8.0 | 0.00 | 0.10 | 0.10 | 88 | 1012.4 |
| 20260506164743 | 16 | 84 | 4.8 | 6.4 | 0.00 | 0.10 | 0.10 | 89 | 1012.3 |
| 20260506164240 | 17 | 59 | 1.6 | 6.4 | 0.00 | 0.10 | 0.10 | 91 | 1011.8 |
| 20260506163737 | 16 | 60 | 3.2 | 6.4 | 0.00 | 0.10 | 0.10 | 91 | 1011.8 |
| 20260506163232 | 15 | 296 | 1.6 | 6.4 | 0.00 | 0.10 | 0.10 | 93 | 1011.8 |
| 20260506162728 | 15 | 61 | 4.8 | 4.8 | 0.00 | 0.10 | 0.10 | 94 | 1011.7 |
| 20260506162226 | 15 | 306 | 1.6 | 8.0 | 0.00 | 0.10 | 0.10 | 95 | 1011.4 |
| 20260506161723 | 13 | 24 | 3.2 | 8.0 | 0.00 | 0.10 | 0.10 | 95 | 1011.3 |
| 20260506161220 | 13 | 33 | 0.0 | 6.4 | 0.05 | 0.10 | 0.10 | 96 | 1011.6 |
| 20260506160718 | 13 | 38 | 3.2 | 4.8 | 0.05 | 0.10 | 0.10 | 96 | 1011.9 |
| 20260506160214 | 13 | 23 | 1.6 | 6.4 | 0.00 | 0.08 | 0.08 | 96 | 1011.5 |
| 20260506155713 | 12 | 73 | 3.2 | 6.4 | 0.05 | 0.08 | 0.08 | 96 | 1012.0 |
| 20260506155210 | 12 | 31 | 6.4 | 6.4 | 0.05 | 0.05 | 0.05 | 95 | 1013.8 |
| 20260506153311 | 12 | 77 | 4.8 | 6.4 | 0.13 | 0.05 | 0.05 | 95 | 1013.3 |
| 20260506152808 | 12 | 324 | 3.2 | 9.7 | 0.13 | 0.05 | 0.05 | 94 | 1013.6 |
| 20260506152306 | 12 | 51 | 4.8 | 12.9 | 0.05 | 0.03 | 0.03 | 94 | 1012.3 |
| 20260506151804 | 13 | 82 | 11.3 | 17.7 | 0.00 | 0.03 | 0.03 | 92 | 1013.4 |
| 20260506151300 | 13 | 57 | 8.0 | 9.7 | 0.00 | 0.03 | 0.03 | 92 | 1014.0 |
| 20260506150757 | 13 | 74 | 3.2 | 9.7 | 0.00 | 0.03 | 0.03 | 93 | 1014.0 |
| 20260506150302 | 13 | 29 | 4.8 | 9.7 | 0.00 | 0.03 | 0.03 | 93 | 1013.8 |
| 20260506145751 | 13 | 15 | 6.4 | 11.3 | 0.00 | 0.03 | 0.03 | 93 | 1013.5 |
| 20260506145248 | 13 | 64 | 4.8 | 11.3 | 0.00 | 0.03 | 0.03 | 93 | 1013.1 |
| 20260506144745 | 13 | 73 | 3.2 | 14.5 | 0.00 | 0.03 | 0.03 | 93 | 1013.0 |
| 20260506144242 | 14 | 58 | 4.8 | 14.5 | 0.00 | 0.03 | 0.03 | 94 | 1013.1 |
| 20260506143740 | 15 | 359 | 4.8 | 9.7 | 0.00 | 0.03 | 0.03 | 93 | 1012.4 |
| 20260506143237 | 15 | 88 | 8.0 | 8.0 | 0.00 | 0.03 | 0.03 | 93 | 1012.7 |
| 20260506142735 | 15 | 49 | 6.4 | 9.7 | 0.00 | 0.03 | 0.03 | 93 | 1012.6 |
| 20260506142233 | 15 | 68 | 4.8 | 9.7 | 0.00 | 0.03 | 0.03 | 93 | 1012.9 |
| 20260506141731 | 15 | 34 | 3.2 | 9.7 | 0.00 | 0.03 | 0.03 | 93 | 1012.6 |
| 20260506141229 | 15 | 46 | 3.2 | 9.7 | 0.00 | 0.03 | 0.03 | 93 | 1012.1 |
| 20260506140726 | 15 | 63 | 6.4 | 8.0 | 0.00 | 0.03 | 0.03 | 93 | 1012.3 |
| 20260506140223 | 15 | 42 | 4.8 | 8.0 | 0.00 | 0.03 | 0.03 | 93 | 1012.4 |
| 20260506135719 | 16 | 44 | 4.8 | 9.7 | 0.00 | 0.03 | 0.03 | 92 | 1012.4 |
| 20260506135216 | 16 | 54 | 3.2 | 8.0 | 0.00 | 0.03 | 0.03 | 92 | 1012.1 |
| 20260506134713 | 16 | 74 | 3.2 | 6.4 | 0.00 | 0.03 | 0.03 | 92 | 1011.4 |
| 20260506134209 | 16 | 76 | 3.2 | 8.0 | 0.00 | 0.03 | 0.03 | 91 | 1011.3 |
| 20260506133706 | 16 | 70 | 4.8 | 6.4 | 0.00 | 0.03 | 0.03 | 91 | 1011.0 |
| 20260506133203 | 16 | 57 | 4.8 | 8.0 | 0.00 | 0.03 | 0.03 | 90 | 1011.0 |
| 20260506132700 | 16 | 65 | 1.6 | 8.0 | 0.00 | 0.03 | 0.03 | 90 | 1010.9 |
| 20260506132157 | 16 | 65 | 3.2 | 6.4 | 0.00 | 0.03 | 0.03 | 90 | 1011.1 |
| 20260506131655 | 16 | 42 | 4.8 | 6.4 | 0.00 | 0.03 | 0.03 | 89 | 1011.4 |
| 20260506131150 | 16 | 57 | 4.8 | 8.0 | 0.00 | 0.03 | 0.03 | 88 | 1011.3 |
| 20260506130647 | 17 | 45 | 1.6 | 3.2 | 0.00 | 0.03 | 0.03 | 88 | 1010.9 |
| 20260506130145 | 17 | 38 | 3.2 | 6.4 | 0.00 | 0.03 | 0.03 | 88 | 1010.8 |
| 20260506125643 | 17 | 53 | 3.2 | 6.4 | 0.00 | 0.03 | 0.03 | 88 | 1010.5 |
| 20260506125141 | 17 | 63 | 3.2 | 6.4 | 0.00 | 0.03 | 0.03 | 88 | 1010.5 |
| 20260506124638 | 17 | 62 | 8.0 | 8.0 | 0.00 | 0.03 | 0.03 | 88 | 1010.2 |
| 20260506124136 | 17 | 61 | 1.6 | 6.4 | 0.00 | 0.03 | 0.03 | 88 | 1010.1 |
| 20260506123633 | 17 | 64 | 3.2 | 4.8 | 0.00 | 0.03 | 0.03 | 88 | 1010.5 |
| 20260506123132 | 17 | 25 | 3.2 | 8.0 | 0.00 | 0.03 | 0.03 | 88 | 1010.3 |
| 20260506122628 | 17 | 357 | 6.4 | 9.7 | 0.00 | 0.03 | 0.03 | 88 | 1010.2 |
| 20260506122126 | 17 | 48 | 4.8 | 6.4 | 0.00 | 0.03 | 0.03 | 88 | 1010.3 |
| 20260506121623 | 17 | 53 | 4.8 | 6.4 | 0.00 | 0.03 | 0.03 | 88 | 1010.0 |
| 20260506121120 | 17 | 62 | 3.2 | 6.4 | 0.00 | 0.03 | 0.03 | 88 | 1010.1 |
| 20260506120618 | 17 | 91 | 6.4 | 8.0 | 0.00 | 0.03 | 0.03 | 88 | 1009.9 |
| 20260506120115 | 18 | 77 | 3.2 | 3.2 | 0.00 | 0.03 | 0.03 | 90 | 1009.8 |
| 20260506115613 | 18 | 86 | 3.2 | 3.2 | 0.00 | 0.03 | 0.03 | 90 | 1009.8 |
| 20260506115111 | 18 | 67 | 0.0 | 3.2 | 0.00 | 0.03 | 0.03 | 90 | 1009.7 |
| 20260506114608 | 18 | 23 | 3.2 | 4.8 | 0.00 | 0.03 | 0.03 | 90 | 1009.7 |
| 20260506114106 | 18 | 25 | 3.2 | 4.8 | 0.00 | 0.03 | 0.03 | 90 | 1009.7 |
| 20260506113604 | 18 | 66 | 3.2 | 3.2 | 0.00 | 0.03 | 0.03 | 91 | 1009.7 |
| 20260506113101 | 18 | 33 | 1.6 | 3.2 | 0.00 | 0.03 | 0.03 | 91 | 1009.6 |
| 20260506112557 | 18 | 33 | 1.6 | 3.2 | 0.00 | 0.03 | 0.03 | 91 | 1009.6 |
| 20260506112055 | 18 | 31 | 3.2 | 4.8 | 0.00 | 0.03 | 0.03 | 92 | 1009.7 |
| 20260506111553 | 18 | 12 | 1.6 | 3.2 | 0.00 | 0.03 | 0.03 | 92 | 1009.7 |
| 20260506111050 | 18 | 74 | 3.2 | 4.8 | 0.00 | 0.03 | 0.03 | 92 | 1009.7 |
| 20260506110547 | 18 | 54 | 3.2 | 6.4 | 0.05 | 0.03 | 0.03 | 92 | 1009.7 |
| 20260506110044 | 18 | 42 | 4.8 | 4.8 | 0.05 | 0.03 | 0.03 | 92 | 1009.6 |
| 20260506105540 | 18 | 311 | 1.6 | 3.2 | 0.00 | 0.00 | 0.00 | 93 | 1009.7 |
| 20260506105038 | 19 | 22 | 1.6 | 4.8 | 0.00 | 0.00 | 0.00 | 94 | 1009.4 |
| 20260506104536 | 19 | 60 | 0.0 | 4.8 | 0.00 | 0.00 | 0.00 | 94 | 1009.3 |
| 20260506104033 | 19 | 72 | 3.2 | 6.4 | 0.00 | 0.00 | 0.00 | 93 | 1009.1 |
| 20260506103530 | 20 | 63 | 3.2 | 6.4 | 0.00 | 0.00 | 0.00 | 94 | 1009.2 |
| 20260506103027 | 20 | 56 | 3.2 | 4.8 | 0.00 | 0.00 | 0.00 | 95 | 1009.0 |
| 20260506102526 | 20 | 67 | 3.2 | 6.4 | 0.00 | 0.00 | 0.00 | 96 | 1009.0 |
| 20260506102023 | 21 | 79 | 3.2 | 4.8 | 0.00 | 0.00 | 0.00 | 97 | 1009.1 |
| 20260506101519 | 22 | 52 | 0.0 | 3.2 | 0.00 | 0.00 | 0.00 | 98 | 1008.9 |
| 20260506101016 | 22 | 49 | 3.2 | 3.2 | 0.00 | 0.00 | 0.00 | 97 | 1008.8 |
| 20260506100514 | 22 | 115 | 0.0 | 3.2 | 0.00 | 0.00 | 0.00 | 97 | 1009.0 |
| 20260506100013 | 22 | 108 | 0.0 | 3.2 | 0.05 | 0.00 | 0.00 | 97 | 1008.7 |
| 20260506095511 | 23 | 41 | 0.0 | 3.2 | 0.00 | 0.00 | 0.00 | 97 | 1008.6 |
| 20260506095006 | 23 | 337 | 0.0 | 1.6 | 0.00 | 0.00 | 0.00 | 96 | 1008.4 |
| 20260506094505 | 23 | 330 | 1.6 | 1.6 | 0.00 | 0.00 | 0.00 | 96 | 1008.5 |
| 20260506094002 | 23 | 27 | 0.0 | 1.6 | 0.00 | 0.00 | 0.00 | 95 | 1008.6 |
| 20260506093500 | 23 | 40 | 0.0 | 1.6 | 0.00 | 0.00 | 0.00 | 94 | 1008.5 |
| 20260506092958 | 23 | 39 | 0.0 | 3.2 | 0.00 | 0.00 | 0.00 | 94 | 1008.5 |
| 20260506092455 | 23 | 58 | 1.6 | 3.2 | 0.00 | 0.00 | 0.00 | 94 | 1008.5 |
| 20260506091951 | 23 | 193 | 0.0 | 3.2 | 0.00 | 0.00 | 0.00 | 94 | 1008.6 |
| 20260506091450 | 23 | 48 | 0.0 | 1.6 | 0.00 | 0.00 | 0.00 | 94 | 1008.5 |
| 20260506090947 | 23 | 229 | 0.0 | 3.2 | 0.00 | 0.00 | 0.00 | 94 | 1008.3 |
| 20260506090445 | 23 | 68 | 1.6 | 3.2 | 0.00 | 0.00 | 0.00 | 94 | 1008.2 |
| 20260506085941 | 23 | 92 | 0.0 | 6.4 | 0.00 | 0.00 | 0.00 | 94 | 1008.3 |
| 20260506085438 | 23 | 75 | 3.2 | 3.2 | 0.00 | 0.00 | 0.00 | 94 | 1008.2 |
| 20260506084934 | 23 | 120 | 1.6 | 3.2 | 0.00 | 0.00 | 0.00 | 94 | 1008.2 |
| 20260506084431 | 23 | 216 | 0.0 | 3.2 | 0.00 | 0.00 | 0.00 | 94 | 1008.1 |
| 20260506083927 | 23 | 277 | 1.6 | 3.2 | 0.00 | 0.00 | 0.00 | 94 | 1008.2 |
| 20260506083425 | 23 | 200 | 1.6 | 3.2 | 0.00 | 0.00 | 0.00 | 93 | 1008.1 |
| 20260506082922 | 23 | 33 | 0.0 | 1.6 | 0.00 | 0.00 | 0.00 | 93 | 1008.1 |
| 20260506082419 | 23 | 217 | 3.2 | 4.8 | 0.00 | 0.00 | 0.00 | 93 | 1008.2 |
| 20260506081914 | 23 | 313 | 1.6 | 3.2 | 0.00 | 0.00 | 0.00 | 93 | 1007.7 |
| 20260506081413 | 23 | 49 | 1.6 | 3.2 | 0.00 | 0.00 | 0.00 | 93 | 1008.1 |
| 20260506080910 | 23 | 269 | 0.0 | 3.2 | 0.00 | 0.00 | 0.00 | 93 | 1008.2 |
| 20260506080407 | 23 | 119 | 0.0 | 3.2 | 0.00 | 0.00 | 0.00 | 93 | 1008.1 |
| 20260506073351 | 23 | 315 | 0.0 | 4.8 | 0.00 | 0.00 | 0.00 | 93 | 1008.4 |
| 20260506072847 | 23 | 224 | 0.0 | 4.8 | 0.00 | 0.00 | 0.00 | 93 | 1008.5 |
| 20260506072345 | 23 | 274 | 0.0 | 4.8 | 0.00 | 0.00 | 0.00 | 93 | 1008.5 |
| 20260506071843 | 23 | 31 | 0.0 | 4.8 | 0.00 | 0.00 | 0.00 | 93 | 1008.8 |
| 20260506071341 | 23 | 230 | 3.2 | 4.8 | 0.00 | 0.00 | 0.00 | 93 | 1008.6 |
| 20260506070837 | 23 | 326 | 0.0 | 6.4 | 0.00 | 0.00 | 0.00 | 93 | 1008.5 |
| 20260506070334 | 23 | 209 | 3.2 | 4.8 | 0.00 | 0.00 | 0.00 | 93 | 1008.3 |
| 20260506062312 | 23 | 282 | 0.0 | 4.8 | 0.00 | 0.00 | 0.00 | 93 | 1008.6 |
| 20260506061807 | 23 | 218 | 0.0 | 1.6 | 0.00 | 0.00 | 0.00 | 94 | 1008.5 |
| 20260506061304 | 23 | 62 | 0.0 | 1.6 | 0.00 | 0.00 | 0.00 | 94 | 1008.4 |
| 20260506060803 | 23 | 53 | 0.0 | 4.8 | 0.00 | 0.00 | 0.00 | 94 | 1008.4 |
| 20260506060300 | 23 | 289 | 0.0 | 4.8 | 0.00 | 0.00 | 0.00 | 94 | 1008.2 |
| 20260506051232 | 23 | 155 | 3.2 | 6.4 | 0.00 | 0.00 | 0.00 | 94 | 1007.2 |
| 20260506050730 | 23 | 180 | 1.6 | 6.4 | 0.00 | 0.00 | 0.00 | 93 | 1007.4 |
| 20260506050227 | 23 | 202 | 0.0 | 4.8 | 0.00 | 0.00 | 0.00 | 93 | 1007.4 |
| 20260506044718 | 23 | 37 | 0.0 | 3.2 | 0.00 | 0.00 | 0.00 | 92 | 1007.5 |
| 20260506044215 | 23 | 206 | 1.6 | 4.8 | 0.00 | 0.00 | 0.00 | 92 | 1007.5 |
| 20260506043712 | 23 | 344 | 3.2 | 11.3 | 0.00 | 0.00 | 0.00 | 91 | 1007.4 |
| 20260506043210 | 23 | 216 | 3.2 | 4.8 | 0.00 | 0.00 | 0.00 | 91 | 1007.3 |
| 20260506042709 | 23 | 245 | 0.0 | 4.8 | 0.00 | 0.00 | 0.00 | 91 | 1007.2 |
| 20260506042206 | 23 | 162 | 0.0 | 3.2 | 0.00 | 0.00 | 0.00 | 91 | 1007.2 |
| 20260506041705 | 23 | 44 | 0.0 | 4.8 | 0.00 | 0.00 | 0.00 | 91 | 1007.2 |
| 20260506041201 | 23 | 75 | 0.0 | 3.2 | 0.00 | 0.00 | 0.00 | 90 | 1007.4 |
| 20260506040658 | 23 | 11 | 0.0 | 3.2 | 0.00 | 0.00 | 0.00 | 90 | 1007.4 |
| 20260506040155 | 23 | 50 | 0.0 | 4.8 | 0.00 | 0.00 | 0.00 | 90 | 1007.2 |
| 20260506035652 | 23 | 249 | 0.0 | 6.4 | 0.00 | 0.00 | 0.00 | 90 | 1007.2 |
| 20260506035149 | 23 | 164 | 0.0 | 4.8 | 0.00 | 0.00 | 0.00 | 89 | 1007.5 |
| 20260506034646 | 23 | 140 | 0.0 | 4.8 | 0.00 | 0.00 | 0.00 | 89 | 1007.4 |
| 20260506034143 | 23 | 104 | 0.0 | 4.8 | 0.00 | 0.00 | 0.00 | 89 | 1007.0 |
| 20260506033640 | 23 | 245 | 0.0 | 4.8 | 0.00 | 0.00 | 0.00 | 89 | 1007.1 |
| 20260506033137 | 24 | 71 | 0.0 | 4.8 | 0.00 | 0.00 | 0.00 | 88 | 1007.0 |
| 20260506032634 | 24 | 238 | 0.0 | 6.4 | 0.00 | 0.00 | 0.00 | 88 | 1007.1 |
| 20260506032131 | 24 | 210 | 4.8 | 4.8 | 0.00 | 0.00 | 0.00 | 88 | 1007.1 |
| 20260506031628 | 24 | 61 | 0.0 | 6.4 | 0.00 | 0.00 | 0.00 | 87 | 1006.9 |
| 20260506031125 | 24 | 217 | 4.8 | 8.0 | 0.00 | 0.00 | 0.00 | 87 | 1006.9 |
| 20260506030624 | 24 | 322 | 0.0 | 4.8 | 0.00 | 0.00 | 0.00 | 86 | 1006.9 |
| 20260506030120 | 24 | 296 | 0.0 | 6.4 | 0.00 | 0.00 | 0.00 | 86 | 1007.1 |
| 20260506025617 | 24 | 217 | 0.0 | 6.4 | 0.00 | 0.00 | 0.00 | 86 | 1006.7 |
| 20260506025113 | 24 | 105 | 1.6 | 8.0 | 0.00 | 0.00 | 0.00 | 86 | 1006.6 |
| 20260506024611 | 25 | 208 | 1.6 | 6.4 | 0.00 | 0.00 | 0.00 | 85 | 1006.5 |
| 20260506024107 | 25 | 226 | 0.0 | 3.2 | 0.00 | 0.00 | 0.00 | 85 | 1006.4 |
| 20260506023603 | 25 | 230 | 0.0 | 3.2 | 0.00 | 0.00 | 0.00 | 85 | 1006.2 |
| 20260506023101 | 25 | 319 | 1.6 | 3.2 | 0.00 | 0.00 | 0.00 | 84 | 1006.1 |
| 20260506022558 | 25 | 164 | 0.0 | 4.8 | 0.00 | 0.00 | 0.00 | 84 | 1006.2 |
| 20260506022055 | 25 | 244 | 0.0 | 3.2 | 0.00 | 0.00 | 0.00 | 84 | 1006.3 |
| 20260506021553 | 25 | 64 | 1.6 | 4.8 | 0.00 | 0.00 | 0.00 | 84 | 1006.3 |
| 20260506021050 | 25 | 337 | 0.0 | 6.4 | 0.00 | 0.00 | 0.00 | 83 | 1006.2 |
| 20260506020547 | 25 | 142 | 1.6 | 4.8 | 0.00 | 0.00 | 0.00 | 83 | 1006.1 |
| 20260506020044 | 25 | 230 | 0.0 | 1.6 | 0.00 | 0.00 | 0.00 | 83 | 1006.1 |
| 20260506015542 | 25 | 150 | 0.0 | 4.8 | 0.00 | 0.00 | 0.00 | 82 | 1006.1 |
| 20260506015039 | 25 | 77 | 1.6 | 4.8 | 0.00 | 0.00 | 0.00 | 82 | 1005.7 |
| 20260506014536 | 25 | 208 | 0.0 | 4.8 | 0.00 | 0.00 | 0.00 | 82 | 1005.8 |
| 20260506014032 | 26 | 22 | 0.0 | 3.2 | 0.00 | 0.00 | 0.00 | 81 | 1005.7 |
| 20260506013531 | 26 | 118 | 1.6 | 8.0 | 0.00 | 0.00 | 0.00 | 81 | 1005.8 |
| 20260506013026 | 26 | 60 | 3.2 | 6.4 | 0.00 | 0.00 | 0.00 | 81 | 1005.6 |
| 20260506012522 | 26 | 49 | 1.6 | 8.0 | 0.00 | 0.00 | 0.00 | 80 | 1005.4 |
| 20260506012020 | 26 | 185 | 3.2 | 4.8 | 0.00 | 0.00 | 0.00 | 80 | 1005.5 |
| 20260506011517 | 26 | 164 | 0.0 | 8.0 | 0.00 | 0.00 | 0.00 | 79 | 1005.5 |
| 20260506011014 | 26 | 135 | 3.2 | 3.2 | 0.00 | 0.00 | 0.00 | 79 | 1005.3 |
| 20260506010513 | 26 | 39 | 3.2 | 4.8 | 0.00 | 0.00 | 0.00 | 78 | 1005.3 |
| 20260506010009 | 26 | 288 | 0.0 | 3.2 | 0.00 | 0.00 | 0.00 | 78 | 1005.5 |
| 20260506005507 | 27 | 251 | 1.6 | 4.8 | 0.00 | 0.00 | 0.00 | 77 | 1005.3 |
| 20260506005002 | 27 | 191 | 3.2 | 6.4 | 0.00 | 0.00 | 0.00 | 76 | 1005.3 |
| 20260506004500 | 27 | 193 | 9.7 | 14.5 | 0.00 | 0.00 | 0.00 | 76 | 1005.3 |
| 20260506003955 | 27 | 213 | 3.2 | 8.0 | 0.00 | 0.00 | 0.00 | 75 | 1005.0 |
| 20260506003452 | 27 | 216 | 9.7 | 11.3 | 0.00 | 0.00 | 0.00 | 74 | 1005.2 |
| 20260506002948 | 27 | 78 | 1.6 | 8.0 | 0.00 | 0.00 | 0.00 | 74 | 1005.1 |
| 20260506002445 | 28 | 139 | 3.2 | 9.7 | 0.00 | 0.00 | 0.00 | 73 | 1005.3 |
| 20260506001940 | 28 | 75 | 0.0 | 4.8 | 0.00 | 0.00 | 0.00 | 73 | 1005.3 |
| 20260506001437 | 28 | 154 | 3.2 | 6.4 | 0.00 | 0.00 | 0.00 | 72 | 1005.3 |
| 20260506000935 | 29 | 249 | 1.6 | 6.4 | 0.00 | 0.00 | 0.00 | 71 | 1005.3 |
| 20260506000432 | 29 | 193 | 0.0 | 6.4 | 0.00 | 0.00 | 0.00 | 71 | 1005.2 |
| 20260505235929 | 29 | 117 | 1.6 | 3.2 | 0.00 | 0.00 | 0.00 | 71 | 1005.2 |
| 20260505235427 | 29 | 48 | 0.0 | 3.2 | 0.00 | 0.00 | 0.00 | 70 | 1005.4 |
| 20260505234923 | 29 | 79 | 1.6 | 6.4 | 0.00 | 0.00 | 0.00 | 70 | 1005.3 |
| 20260505234421 | 30 | 169 | 3.2 | 8.0 | 0.00 | 0.00 | 0.00 | 70 | 1005.2 |
| 20260505233917 | 30 | 254 | 3.2 | 6.4 | 0.00 | 0.00 | 0.00 | 67 | 1005.3 |
| 20260505233416 | 30 | 39 | 0.0 | 4.8 | 0.00 | 0.00 | 0.00 | 64 | 1005.2 |
| 20260505232913 | 30 | 169 | 3.2 | 3.2 | 0.00 | 0.00 | 0.00 | 63 | 1005.1 |
| 20260505232411 | 30 | 243 | 0.0 | 3.2 | 0.00 | 0.00 | 0.00 | 64 | 1005.1 |
| 20260505231907 | 30 | 244 | 3.2 | 8.0 | 0.00 | 0.00 | 0.00 | 63 | 1005.2 |
| 20260505231405 | 30 | 193 | 6.4 | 8.0 | 0.00 | 0.00 | 0.00 | 62 | 1005.2 |
| 20260505230903 | 31 | 245 | 1.6 | 4.8 | 0.00 | 0.00 | 0.00 | 62 | 1005.1 |
| 20260505230400 | 30 | 231 | 0.0 | 8.0 | 0.00 | 0.00 | 0.00 | 64 | 1005.1 |
| 20260505225856 | 30 | 314 | 0.0 | 1.6 | 0.00 | 0.00 | 0.00 | 62 | 1004.9 |
| 20260505225354 | 30 | 215 | 0.0 | 8.0 | 0.00 | 0.00 | 0.00 | 64 | 1005.0 |
| 20260505224848 | 30 | 136 | 9.7 | 11.3 | 0.00 | 0.00 | 0.00 | 64 | 1005.0 |
| 20260505224347 | 31 | 209 | 1.6 | 14.5 | 0.00 | 0.00 | 0.00 | 62 | 1005.0 |
| 20260505223843 | 31 | 252 | 8.0 | 9.7 | 0.00 | 0.00 | 0.00 | 62 | 1005.0 |
| 20260505223340 | 31 | 78 | 8.0 | 9.7 | 0.00 | 0.00 | 0.00 | 63 | 1005.0 |
| 20260505222836 | 31 | 136 | 1.6 | 11.3 | 0.00 | 0.00 | 0.00 | 62 | 1005.2 |
| 20260505222332 | 31 | 57 | 0.0 | 4.8 | 0.00 | 0.00 | 0.00 | 62 | 1005.0 |
| 20260505221830 | 31 | 225 | 3.2 | 8.0 | 0.00 | 0.00 | 0.00 | 62 | 1005.1 |
| 20260505221326 | 31 | 240 | 6.4 | 9.7 | 0.00 | 0.00 | 0.00 | 62 | 1005.1 |
| 20260505220823 | 31 | 346 | 3.2 | 6.4 | 0.00 | 0.00 | 0.00 | 63 | 1005.0 |
| 20260505220320 | 31 | 158 | 3.2 | 9.7 | 0.00 | 0.00 | 0.00 | 64 | 1004.9 |
| 20260505215818 | 31 | 208 | 3.2 | 6.4 | 0.00 | 0.00 | 0.00 | 63 | 1005.0 |
| 20260505215316 | 31 | 229 | 3.2 | 8.0 | 0.00 | 0.00 | 0.00 | 62 | 1005.1 |
| 20260505214814 | 31 | 215 | 4.8 | 8.0 | 0.00 | 0.00 | 0.00 | 62 | 1005.1 |
| 20260505214311 | 31 | 224 | 6.4 | 6.4 | 0.00 | 0.00 | 0.00 | 63 | 1005.1 |
| 20260505213808 | 32 | 134 | 1.6 | 4.8 | 0.00 | 0.00 | 0.00 | 62 | 1005.1 |
| 20260505213306 | 31 | 217 | 4.8 | 11.3 | 0.00 | 0.00 | 0.00 | 64 | 1005.4 |
| 20260505212801 | 31 | 336 | 0.0 | 9.7 | 0.00 | 0.00 | 0.00 | 64 | 1005.4 |
| 20260505212259 | 31 | 240 | 8.0 | 8.0 | 0.00 | 0.00 | 0.00 | 63 | 1005.5 |
| 20260505211755 | 31 | 298 | 3.2 | 4.8 | 0.00 | 0.00 | 0.00 | 64 | 1005.4 |
| 20260505211253 | 31 | 49 | 4.8 | 8.0 | 0.00 | 0.00 | 0.00 | 65 | 1005.4 |
| 20260505210749 | 32 | 254 | 8.0 | 8.0 | 0.00 | 0.00 | 0.00 | 60 | 1005.5 |
| 20260505210246 | 31 | 121 | 0.0 | 3.2 | 0.00 | 0.00 | 0.00 | 66 | 1005.5 |
| 20260505205743 | 31 | 217 | 4.8 | 6.4 | 0.00 | 0.00 | 0.00 | 62 | 1005.5 |
| 20260505205241 | 31 | 249 | 6.4 | 9.7 | 0.00 | 0.00 | 0.00 | 64 | 1005.6 |
| 20260505204737 | 31 | 269 | 0.0 | 11.3 | 0.00 | 0.00 | 0.00 | 64 | 1005.7 |
| 20260505204236 | 31 | 176 | 3.2 | 8.0 | 0.00 | 0.00 | 0.00 | 65 | 1005.9 |
| 20260505203732 | 31 | 139 | 1.6 | 9.7 | 0.00 | 0.00 | 0.00 | 65 | 1006.0 |
| 20260505203229 | 31 | 191 | 4.8 | 14.5 | 0.00 | 0.00 | 0.00 | 64 | 1006.0 |
| 20260505202725 | 31 | 298 | 1.6 | 6.4 | 0.00 | 0.00 | 0.00 | 63 | 1006.0 |
| 20260505202221 | 31 | 152 | 1.6 | 8.0 | 0.00 | 0.00 | 0.00 | 64 | 1005.8 |
| 20260505201718 | 31 | 282 | 4.8 | 8.0 | 0.00 | 0.00 | 0.00 | 63 | 1005.9 |
| 20260505201216 | 31 | 76 | 0.0 | 9.7 | 0.00 | 0.00 | 0.00 | 64 | 1005.7 |
| 20260505200714 | 31 | 145 | 0.0 | 9.7 | 0.00 | 0.00 | 0.00 | 62 | 1005.9 |
| 20260505200210 | 31 | 59 | 1.6 | 14.5 | 0.00 | 0.00 | 0.00 | 64 | 1005.8 |
| 20260505195706 | 31 | 69 | 3.2 | 6.4 | 0.00 | 0.00 | 0.00 | 63 | 1005.8 |
| 20260505195204 | 31 | 49 | 6.4 | 11.3 | 0.00 | 0.00 | 0.00 | 64 | 1006.0 |
| 20260505194701 | 30 | 181 | 0.0 | 8.0 | 0.00 | 0.00 | 0.00 | 66 | 1006.1 |
| 20260505194157 | 30 | 243 | 3.2 | 8.0 | 0.00 | 0.00 | 0.00 | 64 | 1006.1 |
| 20260505193653 | 30 | 93 | 8.0 | 12.9 | 0.00 | 0.00 | 0.00 | 64 | 1006.0 |
| 20260505193151 | 30 | 216 | 4.8 | 12.9 | 0.00 | 0.00 | 0.00 | 65 | 1006.1 |
| 20260505192649 | 30 | 197 | 3.2 | 9.7 | 0.00 | 0.00 | 0.00 | 66 | 1006.4 |
| 20260505192146 | 30 | 238 | 6.4 | 17.7 | 0.00 | 0.00 | 0.00 | 66 | 1006.3 |
| 20260505191645 | 30 | 113 | 4.8 | 9.7 | 0.00 | 0.00 | 0.00 | 67 | 1006.3 |
| 20260505191142 | 30 | 99 | 8.0 | 9.7 | 0.00 | 0.00 | 0.00 | 68 | 1006.4 |
| 20260505190638 | 30 | 271 | 6.4 | 16.1 | 0.00 | 0.00 | 0.00 | 68 | 1006.4 |
| 20260505190133 | 29 | 207 | 4.8 | 9.7 | 0.00 | 0.00 | 0.00 | 68 | 1006.3 |
| 20260505185630 | 29 | 123 | 8.0 | 17.7 | 0.00 | 0.00 | 0.00 | 69 | 1006.5 |
| 20260505185126 | 29 | 108 | 0.0 | 9.7 | 0.00 | 0.00 | 0.00 | 71 | 1006.9 |
| 20260505184623 | 29 | 271 | 0.0 | 11.3 | 0.00 | 0.00 | 0.00 | 70 | 1006.9 |
| 20260505184120 | 28 | 155 | 0.0 | 14.5 | 0.00 | 0.00 | 0.00 | 71 | 1006.7 |
| 20260505183616 | 28 | 111 | 3.2 | 11.3 | 0.00 | 0.00 | 0.00 | 71 | 1007.0 |
| 20260505183114 | 29 | 103 | 0.0 | 12.9 | 0.00 | 0.00 | 0.00 | 72 | 1007.1 |
| 20260505182610 | 29 | 245 | 9.7 | 17.7 | 0.00 | 0.00 | 0.00 | 69 | 1007.1 |
| 20260505182107 | 29 | 109 | 0.0 | 14.5 | 0.00 | 0.00 | 0.00 | 70 | 1007.2 |
| 20260505181604 | 28 | 248 | 3.2 | 9.7 | 0.00 | 0.00 | 0.00 | 70 | 1007.0 |
| 20260505181101 | 28 | 202 | 4.8 | 12.9 | 0.00 | 0.00 | 0.00 | 71 | 1007.3 |
| 20260505180556 | 28 | 192 | 1.6 | 12.9 | 0.00 | 0.00 | 0.00 | 72 | 1007.3 |
| 20260505180055 | 28 | 145 | 6.4 | 12.9 | 0.00 | 0.00 | 0.00 | 71 | 1007.4 |
| 20260505175550 | 28 | 220 | 0.0 | 8.0 | 0.00 | 0.00 | 0.00 | 70 | 1007.3 |
| 20260505175047 | 28 | 123 | 0.0 | 6.4 | 0.00 | 0.00 | 0.00 | 71 | 1007.6 |
| 20260505174544 | 28 | 190 | 6.4 | 17.7 | 0.00 | 0.00 | 0.00 | 71 | 1007.6 |
| 20260505174040 | 27 | 25 | 0.0 | 19.3 | 0.00 | 0.00 | 0.00 | 75 | 1007.6 |
| 20260505173537 | 28 | 60 | 3.2 | 14.5 | 0.00 | 0.00 | 0.00 | 71 | 1007.4 |
| 20260505173034 | 28 | 215 | 3.2 | 6.4 | 0.00 | 0.00 | 0.00 | 72 | 1007.5 |
| 20260505172532 | 27 | 268 | 8.0 | 12.9 | 0.00 | 0.00 | 0.00 | 72 | 1007.6 |
| 20260505172028 | 28 | 256 | 11.3 | 12.9 | 0.00 | 0.00 | 0.00 | 71 | 1007.8 |
| 20260505171522 | 28 | 250 | 12.9 | 17.7 | 0.00 | 0.00 | 0.00 | 72 | 1007.6 |
| 20260505171020 | 27 | 262 | 1.6 | 8.0 | 0.00 | 0.00 | 0.00 | 74 | 1007.5 |
| 20260505170516 | 27 | 242 | 6.4 | 22.5 | 0.00 | 0.00 | 0.00 | 74 | 1007.5 |
| 20260505170012 | 27 | 137 | 0.0 | 9.7 | 0.00 | 0.00 | 0.00 | 73 | 1007.3 |